Latest METARs, TAFs and NOTAMs for ETSI


---------------------------------------------------------------------------
	(OBSERVATIONS)
ETSI 240920Z VRB02KT 9000 SCT009 BKN280 09/07 Q1023 BLU+BLU+=
ETSI 240833Z 26002KT 8000 FEW005 BKN280 08/06 Q1023 BLU+BLU+=
ETSI 240820Z 29002KT 5000 BR FEW002 BKN280 08/06 Q1024 WHT WHT
    BECMG BLU+=
ETSI 240811Z 28002KT 5000 VCFG BR FEW002 BKN280 08/06 Q1024 WHT
    WHT BECMG BLU+=
ETSI 240733Z 22002KT 3800 VCFG BR FEW002 BKN046 06/06 Q1023 GRN
    GRN TEMPO YLO=
ETSI 240720Z 23001KT 3500 VCFG BR BKN046 06/06 Q1024 YLO GRN
    TEMPO YLO=
---------------------------------------------------------------------------
	(FC)
TAF ETSI 240715Z 2408/2417 VRB03KT 4000 BR FEW010 BKN040
     BECMG 2408/2410 08005KT 9000 NSW FEW015 SCT030=
---------------------------------------------------------------------------
	(TERMINAL AREA FORECAST)
ETSI 240715Z 2408/2417 VRB03KT 4000 BR  FEW010 BKN040
    BECMG  2408/2410 08005KT 9000 NSW FEW015 SCT030=
---------------------------------------------------------------------------
	(NOTAMS)


ETSI E1089/14 SPECIAL ACTIVITY AREA ESTABLISHED FOR GLIDER AEROBATICS
    RADIUS 3NM CENTERED AT 4842N 01132E INGOLSTADT/MANCHING AIRFIELD.
    GND - 6000FT AMSL, SAT-SUN 0700-SS, AUG 15 AND OCT 03 0700-SS,
    27 JUL 07:00 2014 UNTIL 25 OCT 16:07 2014. CREATED: 07 MAY
    08:22 2014

ETSI E1091/14 SPECIAL ACTIVITY AREA ESTABLISHED FOR GLIDER AEROBATICS
    RADIUS 3NM CENTERED AT 4842N 01132E INGOLSTADT/MANCHING AIRFIELD.
    GND - 6000FT AMSL, SAT-SUN 0700-SS, DEC 25 26 0700-SS, 26
    OCT 07:00 2014 UNTIL 28 DEC 15:14 2014. CREATED: 07 MAY 09:44
    2014

ETSI P5327/14 AD ETSI: LVTO-PROCEDURE SUSPENDED. 25 AUG 14:58
    2014 UNTIL 21 NOV 10:00 2014. CREATED: 25 AUG 15:04 2014

ETSI P5328/14 AD ETSI: NO SRA POSSIBLE. 25 AUG 15:01 2014 UNTIL
    21 NOV 10:00 2014. CREATED: 25 AUG 15:05 2014

ETSI P5346/14 AD ETSI: PAR RWY25R/07L OUT OF SERVICE. 26 AUG
    06:15 2014 UNTIL 21 NOV 10:00 2014. CREATED: 26 AUG 06:19
    2014

ETSI P6270/14 AD ETSI: PAR RWY25L/07R OUT OF SERVICE. 02 OCT
    15:00 2014 UNTIL 23 DEC 13:00 2014. CREATED: 01 OCT 12:23
    2014

ETSI P6596/14 AD ETSI: APPROACH FLASH LIGHTING SYSTEM(AFLS) RWY07R
    OUT OF SERVICE. 16 OCT 06:44 2014 UNTIL 24 OCT 12:00 2014.
    CREATED: 16 OCT 06:58 2014

ETSI P6663/14 AD ETSI: NO RADAR SERVICE AVAILABLE DUE TO LACK
    OF PERSONNEL. 27 OCT 05:00 2014 UNTIL 31 OCT 12:00 2014.
    CREATED: 17 OCT 08:15 2014

ETSI P6710/14 AD ETSI: RWY25L/07R CLOSED. 20 OCT 13:08 2014 UNTIL
    24 OCT 12:00 2014. CREATED: 20 OCT 13:14 2014

ETSI P6711/14 AD ETSI: NO ALTERNATE. 20 OCT 13:09 2014 UNTIL
    24 OCT 12:00 2014. CREATED: 20 OCT 13:16 2014

ETSI P6712/14 AD ETSI: NO PRACT APCH. 20 OCT 13:13 2014 UNTIL
    24 OCT 12:00 2014. CREATED: 20 OCT 13:17 2014

ETSI P6714/14 AD ETSI: TAKEOFF OF MIL JETS ONLY BTWN: MON-THU:
    0700-1000 AND 1130-1500, FRI: 0700-1000. 20 OCT 13:14 2014
    UNTIL 24 OCT 12:00 2014. CREATED: 20 OCT 13:19 2014

ETSI P6716/14 AD ETSI: NO APPROACH END ARRESTMENT ON RWY07L.
    20 OCT 13:17 2014 UNTIL 24 OCT 12:00 2014. CREATED: 20 OCT
    13:21 2014

ETSI P6762/14 AD ETSI: AERODROME CLOSED (EXCEPT SCHEDULED CIVIL
    TRAFFIC. 27 OCT 08:00 2014 UNTIL 27 OCT 16:00 2014. CREATED:
    22 OCT 06:31 2014

ETSI P6763/14 AD ETSI: AERODROME CLOSED (EXCEPT SCHEDULED CIVIL
    TRAFFIC. 31 OCT 08:00 2014 UNTIL 04 NOV 08:00 2014. CREATED:
    22 OCT 06:35 2014

ETSI P6858/14 AD ETSI: TWY S CLOSED BETWEEN A2 AND A4. 27 OCT
    06:00 2014 UNTIL 28 OCT 16:00 2014. CREATED: 24 OCT 07:55
    2014

ETSI P6862/14 AD ETSI: 24HRS PPR. 24 OCT 09:08 2014 UNTIL 07
    NOV 13:00 2014. CREATED: 24 OCT 09:11 2014

---------------------------------------------------------------------------